Lake Wedowee Weather Center

Moon Phase Calendar



Lake Wedowee Water Level
Online Cameras

 


      

Current Conditions in Wedowee
10/6/2022 6:51:03 PM

66°F
Feels Like 65
Clear
Humidity
57%
Pressure
30.06"
Wind
2.2 mph (NNW)
Dew Point
50°F
UV Index
0/10 (Low)
Visibility
6 mi

Hourly Forecast

Date & Time Thu, Oct 6
6:00 PM
Thu, Oct 6
7:00 PM
Thu, Oct 6
8:00 PM
Thu, Oct 6
9:00 PM
Thu, Oct 6
10:00 PM
Thu, Oct 6
11:00 PM
Fri, Oct 7
12:00 AM
Fri, Oct 7
1:00 AM
Fri, Oct 7
2:00 AM
Fri, Oct 7
3:00 AM
Fri, Oct 7
4:00 AM
Fri, Oct 7
5:00 AM
Fri, Oct 7
6:00 AM
Fri, Oct 7
7:00 AM
Fri, Oct 7
8:00 AM
Fri, Oct 7
9:00 AM
Fri, Oct 7
10:00 AM
Fri, Oct 7
11:00 AM
Fri, Oct 7
12:00 PM
Fri, Oct 7
1:00 PM
Fri, Oct 7
2:00 PM
Fri, Oct 7
3:00 PM
Fri, Oct 7
4:00 PM
Fri, Oct 7
5:00 PM
Fri, Oct 7
6:00 PM
Fri, Oct 7
7:00 PM
Fri, Oct 7
8:00 PM
Fri, Oct 7
9:00 PM
Fri, Oct 7
10:00 PM
Fri, Oct 7
11:00 PM
Sat, Oct 8
12:00 AM
Sat, Oct 8
1:00 AM
Sat, Oct 8
2:00 AM
Sat, Oct 8
3:00 AM
Sat, Oct 8
4:00 AM
Sat, Oct 8
5:00 AM
Sat, Oct 8
6:00 AM
Sat, Oct 8
7:00 AM
Sat, Oct 8
8:00 AM
Sat, Oct 8
9:00 AM
Sat, Oct 8
10:00 AM
Sat, Oct 8
11:00 AM
Sat, Oct 8
12:00 PM
Sat, Oct 8
1:00 PM
Sat, Oct 8
2:00 PM
Sat, Oct 8
3:00 PM
Sat, Oct 8
4:00 PM
Sat, Oct 8
5:00 PM
Condition
Clear

Clear

Clear

Clear

Clear

Clear

Clear

Clear

Clear

Clear

Clear

Clear

Clear

Clear

Clear

Clear

Clear

Clear

Clear

Clear

Clouds

Clear

Clear

Clear

Clouds

Clouds

Clouds

Clouds

Clouds

Clouds

Clouds

Clouds

Clouds

Clouds

Clouds

Clouds

Clouds

Clouds

Clear

Clouds

Clouds

Clouds

Clouds

Clouds

Clouds

Clouds

Clouds

Clouds
Temperature 66°F66°F65°F64°F62°F60°F59°F58°F58°F58°F57°F57°F56°F56°F62°F70°F75°F79°F81°F82°F82°F82°F81°F79°F71°F66°F64°F63°F62°F61°F60°F60°F59°F59°F58°F56°F55°F54°F59°F63°F67°F71°F72°F74°F74°F74°F73°F71°F
Feels Like 65°F65°F64°F62°F60°F58°F57°F56°F56°F56°F55°F55°F54°F54°F61°F68°F74°F79°F80°F80°F80°F80°F80°F78°F70°F65°F63°F62°F61°F60°F60°F60°F58°F58°F57°F55°F54°F53°F57°F61°F66°F69°F71°F72°F73°F73°F72°F69°F
Cloudiness 0%0%0%0%0%0%0%0%0%0%0%0%1%5%9%8%6%6%7%8%13%9%8%8%13%21%62%60%51%61%68%73%98%99%99%100%95%86%9%54%38%40%51%58%81%83%73%74%
Visibility 6 mi6 mi6 mi6 mi6 mi6 mi6 mi6 mi6 mi6 mi6 mi6 mi6 mi6 mi6 mi6 mi6 mi6 mi6 mi6 mi6 mi6 mi6 mi6 mi6 mi6 mi6 mi6 mi6 mi6 mi6 mi6 mi6 mi6 mi6 mi6 mi6 mi6 mi6 mi6 mi6 mi6 mi6 mi6 mi6 mi6 mi6 mi6 mi
Precipitation 0%0%0%0%0%0%0%0%0%0%0%0%0%0%0%0%0%0%0%0%0%0%0%0%0%0%0%0%0%0%0%0%0%0%0%0%0%0%0%0%0%0%0%0%0%0%0%0%
Humidity 54%57%54%53%52%51%50%51%51%52%53%54%54%55%50%40%35%32%31%30%29%30%31%37%50%55%59%64%68%71%74%74%77%75%76%79%78%78%65%49%40%35%32%31%30%29%29%32%
Dew Point 49°F50°F48°F46°F44°F42°F40°F40°F40°F40°F40°F40°F39°F40°F43°F44°F45°F46°F47°F47°F47°F47°F47°F50°F51°F50°F49°F50°F51°F51°F52°F52°F51°F51°F50°F49°F48°F47°F46°F43°F42°F41°F41°F41°F41°F40°F38°F40°F
Pressure 30.09"30.09"30.09"30.09"30.12"30.12"30.12"30.12"30.12"30.12"30.12"30.12"30.15"30.15"30.18"30.18"30.15"30.15"30.12"30.12"30.09"30.06"30.06"30.09"30.12"30.12"30.15"30.18"30.18"30.18"30.18"30.18"30.18"30.18"30.21"30.21"30.24"30.24"30.27"30.27"30.27"30.24"30.24"30.24"30.18"30.18"30.15"30.18"
Wind Speed 2.5 mph2 mph2.2 mph2.2 mph1.8 mph0.8 mph0.3 mph0.5 mph0.7 mph1.6 mph2.6 mph1.9 mph1.6 mph2.1 mph1.9 mph3.3 mph4.1 mph5.3 mph6.3 mph7.6 mph7.9 mph7.8 mph7.8 mph7.2 mph5.5 mph5.5 mph5.6 mph6.2 mph5.7 mph5.4 mph5.4 mph5.2 mph5.2 mph6.2 mph5.5 mph5.4 mph5.6 mph5.8 mph6.9 mph8.5 mph8.4 mph8.8 mph9.2 mph9.4 mph9.4 mph9.2 mph9.7 mph8.1 mph
Wind
Direction
332°
NNW
338°
NNW
352°
N
360°
N

N
353°
N
294°
WNW
267°
W
294°
WNW
281°
W
303°
WNW
299°
WNW
295°
WNW
299°
WNW
303°
WNW
304°
NW
305°
NW
309°
NW
320°
NW
321°
NW
323°
NW
326°
NW
332°
NNW
336°
NNW
340°
NNW
349°
N
352°
N
359°
N

N

N
14°
NNE

N

N

N

N
356°
N

N
354°
N

N

N
359°
N
356°
N
349°
N
343°
NNW
344°
NNW
342°
NNW
344°
NNW
344°
NNW

Daily Forecast

Date High Low Precip. Humidity
Today
Oct 6

Clear
80 °F
53 °F
0%
26%
Friday
Oct 7

Clear
82 °F
56 °F
0%
31%
Saturday
Oct 8

Clouds
74 °F
52 °F
0%
32%
Sunday
Oct 9

Clear
72 °F
44 °F
0%
26%
Monday
Oct 10

Clear
77 °F
45 °F
0%
22%
Tuesday
Oct 11

Clouds
81 °F
54 °F
0%
44%
Wednesday
Oct 12

Clouds
83 °F
58 °F
0%
43%
Thursday
Oct 13

Rain
71 °F
64 °F
100%
90%
Friday
Oct 14

Rain
79 °F
58 °F
98%
25%
Saturday
Oct 15

Clear
67 °F
47 °F
0%
27%
Sunday
Oct 16

Clear
73 °F
46 °F
0%
25%
Monday
Oct 17

Clouds
67 °F
47 °F
0%
28%
Tuesday
Oct 18

Clear
60 °F
38 °F
0%
27%
Wednesday
Oct 19

Clear
64 °F
39 °F
0%
23%
Thursday
Oct 20

Clouds
71 °F
43 °F
0%
27%
Friday
Oct 21

Clear
70 °F
49 °F
0%
27%

Temperature 8-14 Day Outlook



Precipitation 8-14 Day Outlook




Quick Links
Lake Wedowee News
Lake Wedowee Photos
Lake Wedowee Videos




About Us
Contact Us
Site Map
Search Site
Advertise With Us
   
www.LakeWedowee.info
THE LAKE WEDOWEE WEBSITE

Copyright 2022, Lakes Online
Privacy    |    Legal